DateTimeUTC,F1_A11,F1_S11,BsB_S11,BsG_S11,BsR_S11,BbsB_S11,BbsG_S11,BbsR_S11,BaB_A11,BaG_A11,BaR_A11,Tu_S11,T_S11,Uu_S11,U_S11,P_S11,T1_A11
2021-06-12T08:00:00Z,00000200,21000000,,,,,,,-000.03,-000.06,0000.11,17.0,24.0,01.5,01.0,0666.0,30.9
2021-06-12T08:01:00Z,00000200,21000000,,,,,,,0000.10,0000.04,-000.08,17.0,24.0,01.3,00.8,0666.0,30.9
2021-06-12T08:02:00Z,00000200,21000000,,,,,,,0000.03,0000.16,-000.10,17.0,24.0,01.2,00.8,0666.0,30.9
2021-06-12T08:03:00Z,00000200,61000000,,,,,,,0000.13,0000.16,0000.39,17.0,24.0,01.2,00.8,0666.0,30.9
2021-06-12T08:04:00Z,00000200,41000000,0001.47,0000.81,0000.68,0000.85,0000.24,0000.42,0000.34,0000.09,0000.12,17.2,23.8,01.4,00.9,0666.9,30.9
2021-06-12T08:05:00Z,00000200,01000000,0001.51,0000.89,0000.86,0000.62,0000.09,0000.15,0000.12,0000.05,-000.00,17.2,23.8,01.5,01.0,0666.9,30.9
2021-06-12T08:06:00Z,00000200,01000000,0001.10,0001.20,0000.58,0000.34,0000.31,0000.24,0000.19,0000.52,0000.39,17.3,23.8,01.5,01.0,0667.0,30.9
2021-06-12T08:07:00Z,00000200,01000000,0001.49,0000.52,0000.56,0000.89,0000.29,0000.12,0000.30,0000.42,0000.47,17.4,23.8,01.5,01.0,0667.0,30.9
2021-06-12T08:08:00Z,00000200,01000000,0001.76,0000.61,0000.70,0000.28,0000.18,0000.15,0000.19,0000.13,-000.40,17.5,23.9,01.5,01.0,0667.0,31.0
2021-06-12T08:09:00Z,00000200,01000000,0001.48,0000.76,0000.57,0000.72,0000.08,0000.34,0000.46,0000.58,0000.77,17.6,24.0,01.4,01.0,0667.1,31.0
2021-06-12T08:10:00Z,00000200,01000000,0002.13,0001.14,0000.72,0000.42,0000.36,0000.08,-000.01,-000.37,-000.23,17.7,24.0,01.4,00.9,0667.1,31.0
2021-06-12T08:11:00Z,00000200,01000000,0002.15,0000.93,0000.70,0000.41,0000.39,-000.03,0000.38,0000.35,0000.24,17.8,24.1,01.4,01.0,0667.1,31.0
2021-06-12T08:12:00Z,00000200,01000000,0001.57,0000.54,0000.72,0000.06,0000.36,0000.07,0000.13,0000.26,0000.22,17.8,24.1,01.4,01.0,0667.1,31.0
2021-06-12T08:13:00Z,00000200,01000000,0002.11,0000.86,0000.65,0000.97,0000.56,0000.16,0000.09,-000.13,-000.21,17.8,24.1,01.3,00.9,0667.1,31.0
2021-06-12T08:14:00Z,00000200,01000000,0001.68,0000.70,0000.67,0001.02,0000.13,0000.23,0000.21,0000.15,0000.33,17.8,24.1,01.4,01.0,0667.1,31.0
2021-06-12T08:15:00Z,00000200,01000000,0001.79,0001.04,0000.67,0000.75,0000.30,0000.42,0000.16,0000.08,0000.20,17.8,24.1,01.4,01.0,0667.1,31.0
2021-06-12T08:16:00Z,00000200,01000000,0001.94,0000.87,0000.77,0001.05,0000.33,0000.45,0000.23,0000.42,-000.03,17.8,24.1,01.3,00.9,0667.1,31.0
2021-06-12T08:17:00Z,00000200,01000000,0001.42,0000.76,0000.73,0000.41,0000.07,0000.20,-000.00,-000.29,0000.17,17.8,24.1,01.3,00.9,0667.1,31.0
2021-06-12T08:18:00Z,00000200,01000000,0001.79,0000.94,0000.64,0000.17,0000.26,0000.53,0000.01,0000.56,0000.16,17.8,24.1,01.3,00.9,0667.1,31.0
2021-06-12T08:19:00Z,00000200,01000000,0001.63,0000.74,0000.74,0000.50,0000.14,0000.25,0000.58,0000.36,0000.21,17.7,24.1,01.3,00.9,0667.1,31.0
2021-06-12T08:20:00Z,00000200,01000000,0001.35,0001.07,0000.48,0000.46,0000.11,-000.00,0000.11,0000.06,0000.28,17.7,24.1,01.3,00.9,0667.1,31.0
2021-06-12T08:21:00Z,00000200,01000000,0001.15,0000.61,0001.00,0000.66,0000.22,0000.48,0000.01,-000.18,0000.20,17.7,24.1,01.4,01.0,0667.1,31.0
2021-06-12T08:22:00Z,00000200,01000000,0001.95,0000.58,0000.78,0000.42,0000.08,0000.06,0000.51,0000.55,-000.07,17.7,24.1,01.4,01.0,0667.1,31.0
2021-06-12T08:23:00Z,00000200,01000000,0002.46,0001.06,0000.66,0001.01,0000.29,0000.25,0000.30,-000.19,0000.20,17.7,24.1,01.4,00.9,0667.1,31.0
2021-06-12T08:24:00Z,00000200,01000000,0002.25,0000.98,0000.75,0000.56,0000.26,0000.48,0000.17,0000.53,0000.39,17.7,24.1,01.4,00.9,0667.0,31.0
2021-06-12T08:25:00Z,00000200,01000000,0001.70,0000.86,0000.40,0000.57,0000.33,0000.20,0000.06,-000.04,0000.07,17.7,24.1,01.4,00.9,0667.0,31.0
2021-06-12T08:26:00Z,00000200,01000000,0000.84,0000.82,0000.43,0001.14,-000.08,0000.05,0000.37,0000.53,0000.56,17.7,24.1,01.3,00.9,0667.1,31.0
2021-06-12T08:27:00Z,00000200,01000000,0002.35,0001.03,0000.62,0000.46,0000.27,0000.15,0000.25,0000.37,-000.30,17.7,24.1,01.5,01.0,0667.0,31.0
2021-06-12T08:28:00Z,00000200,01000000,0001.12,0000.78,0000.68,0000.85,0000.24,0000.42,0000.16,-000.12,0000.35,17.7,24.1,01.4,01.0,0667.0,31.0
2021-06-12T08:29:00Z,00000200,01000000,0001.22,0000.89,0000.73,0000.08,0000.13,0000.04,-000.23,0000.07,-000.28,17.7,24.1,01.3,00.9,0667.1,31.0
2021-06-12T08:30:00Z,00000200,01000000,0001.49,0000.67,0000.91,0000.86,0000.21,0000.43,0000.42,0000.13,0000.17,17.7,24.1,01.4,00.9,0667.1,30.9
2021-06-12T08:31:00Z,00000200,01000000,0001.46,0000.57,0000.31,0000.37,0000.14,0000.15,0000.52,0000.68,0000.31,17.7,24.0,01.4,01.0,0667.1,31.0
2021-06-12T08:32:00Z,00000200,01000000,0001.68,0000.39,0000.60,-000.02,0000.13,0000.42,-000.03,-000.16,0000.29,17.7,24.1,01.4,01.0,0667.1,31.0
2021-06-12T08:33:00Z,00000200,01000000,0001.15,0000.78,0000.73,0000.68,-000.06,0000.19,0000.09,0000.11,0000.25,17.7,24.1,01.4,00.9,0667.1,31.0
2021-06-12T08:34:00Z,00000200,01000000,0001.62,0000.92,0000.87,0000.47,0000.38,0000.23,0000.32,0000.37,-000.05,17.7,24.1,01.4,00.9,0667.1,31.0
2021-06-12T08:35:00Z,00000200,01000000,0001.04,0000.85,0000.75,0000.20,0000.35,0000.01,0003.08,0002.93,0001.90,17.7,24.0,01.4,00.9,0667.0,31.0
2021-06-12T08:36:00Z,00000200,01000000,0001.40,0001.00,0000.77,0000.49,0000.40,0000.39,0002.22,0001.39,0001.17,17.7,24.0,01.4,01.0,0667.1,31.0
2021-06-12T08:37:00Z,00000200,01000000,0001.55,0000.62,0000.69,0000.56,0000.06,0000.19,0002.56,0002.76,0002.61,17.7,24.1,01.5,01.0,0667.1,31.0
2021-06-12T08:38:00Z,00000200,01000000,0001.77,0000.95,0000.73,0000.21,0000.46,0000.17,0002.47,0002.46,0001.83,17.7,24.1,01.4,00.9,0667.1,31.0
2021-06-12T08:39:00Z,00000200,01000000,0001.74,0000.88,0000.81,0000.70,0000.30,0000.19,0007.16,0005.97,0004.65,17.7,24.0,01.4,00.9,0667.1,31.0
2021-06-12T08:40:00Z,00000200,01000000,0001.80,0001.09,0000.99,0000.31,0000.43,0000.43,0010.58,0010.10,0007.51,17.7,24.0,01.4,01.0,0667.1,31.0
2021-06-12T08:41:00Z,00000200,01000000,0001.81,0000.87,0000.18,0000.21,-000.20,-000.03,0005.05,0004.45,0003.59,17.7,24.0,01.4,01.0,0667.1,31.0
2021-06-12T08:42:00Z,00000200,01000000,0001.75,0000.70,0000.68,0000.37,0000.14,0000.25,0000.55,0000.23,0000.44,17.7,24.0,01.4,01.0,0667.1,30.9
2021-06-12T08:43:00Z,00000200,01000000,0001.29,0001.03,0000.74,0000.31,0000.22,0000.39,0000.89,0000.77,0000.18,17.7,24.0,01.4,00.9,0667.1,31.0
2021-06-12T08:44:00Z,00000200,01000000,0000.99,0000.76,0000.51,0000.70,0000.13,0000.57,0003.20,0002.76,0002.33,17.7,24.0,01.4,00.9,0667.1,31.0
2021-06-12T08:45:00Z,00000200,01000000,0001.98,0001.02,0001.00,0000.27,0000.34,0000.36,0003.22,0003.19,0002.27,17.7,24.0,01.3,00.9,0667.1,31.0
2021-06-12T08:46:00Z,00000200,01000000,0001.74,0000.80,0000.73,0000.26,0000.15,0000.08,0001.76,0001.40,0000.95,17.7,24.0,01.4,00.9,0667.1,31.0
2021-06-12T08:47:00Z,00000200,01000000,0000.54,0000.87,0000.59,0000.60,0000.34,-000.02,0000.18,0000.37,0000.63,17.7,24.0,01.4,01.0,0667.1,31.0
2021-06-12T08:48:00Z,00000200,01000000,0001.57,0000.80,0000.97,0000.30,0000.19,0000.56,0000.24,-000.31,0000.02,17.7,24.0,01.4,00.9,0667.1,31.0
2021-06-12T08:49:00Z,00000200,01000000,0001.62,0001.00,0000.68,0000.71,0000.34,0000.46,-000.15,0000.62,0000.01,17.7,24.0,01.3,00.9,0667.1,31.0
2021-06-12T08:50:00Z,00000200,01000000,0001.58,0000.85,0000.59,0000.28,0000.07,0000.21,0000.54,0000.12,-000.07,17.7,24.1,01.4,00.9,0667.1,31.0
2021-06-12T08:51:00Z,00000200,01000000,0002.14,0001.25,0000.65,0000.51,0000.17,0000.04,0000.40,0000.39,0000.60,17.7,24.0,01.3,00.9,0667.1,31.0
2021-06-12T08:52:00Z,00000200,01000000,0002.20,0001.06,0000.68,-000.01,0000.23,0000.07,0000.26,-000.05,-000.03,17.7,24.0,01.3,00.9,0667.1,31.0
2021-06-12T08:53:00Z,00000200,01000000,0001.53,0001.09,0000.70,0000.41,0000.44,0000.60,0000.04,0000.47,0000.22,17.8,24.1,01.3,00.9,0667.1,31.0
2021-06-12T08:54:00Z,00000200,01000000,0001.86,0000.94,0000.56,0000.42,0000.35,0000.36,0000.41,0000.24,0000.27,17.8,24.1,01.4,00.9,0667.2,31.0
2021-06-12T08:55:00Z,00000200,01000000,0001.33,0000.76,0000.52,0000.40,0000.25,0000.27,0000.05,0000.27,-000.06,17.8,24.1,01.4,00.9,0667.1,31.0
2021-06-12T08:56:00Z,00000200,01000000,0002.23,0001.16,0000.45,0000.29,0000.30,0000.21,0000.20,-000.04,0000.25,17.8,24.0,01.4,00.9,0667.2,31.0
2021-06-12T08:57:00Z,00000200,41000000,,,,,,,0000.15,0000.23,0000.17,17.8,24.1,01.6,01.1,0667.2,31.0
2021-06-12T08:58:00Z,00000200,61000000,,,,,,,-000.10,-000.11,0000.22,17.5,24.2,01.5,01.0,0666.1,31.0
2021-06-12T08:59:00Z,00000200,21000000,,,,,,,0000.16,0000.33,0000.02,17.5,24.3,01.2,00.8,0666.1,31.0
